This is the latest recevied weather packets stored in our database for station/object KC3UTO. If no packets are shown the sender has not sent any weather packets the latest 10 day(s).
| Time | Temp. | Humidity | Pressure | Rain* | Wind** | Luminosity | Snow |
|---|---|---|---|---|---|---|---|
| 1777469692 | 13.89° C | 57% | 1014.1 hPa | 0 mm | - | 199 W/m² | - |
| 1777469388 | 13.89° C | 58% | 1014.3 hPa | 0 mm | - | 325 W/m² | - |
| 1777469083 | 13.89° C | 58% | 1014.3 hPa | 0 mm | - | 258 W/m² | - |
| 1777468778 | 13.89° C | 59% | 1014.2 hPa | 0 mm | - | 443 W/m² | - |
| 1777468475 | 12.78° C | 61% | 1014.3 hPa | 0 mm | - | 405 W/m² | - |
| 1777468172 | 12.78° C | 62% | 1014.4 hPa | 0 mm | - | 208 W/m² | - |
| 1777467868 | 12.22° C | 62% | 1014.3 hPa | 0 mm | - | 143 W/m² | - |
| 1777467563 | 12.22° C | 63% | 1014.3 hPa | 0 mm | - | 118 W/m² | - |
| 1777467259 | 12.22° C | 63% | 1014.3 hPa | 0 mm | - | 93 W/m² | - |
| 1777466955 | 12.22° C | 60% | 1014.4 hPa | 0 mm | - | 74 W/m² | - |
| 1777466653 | 12.22° C | 61% | 1014.4 hPa | 0 mm | - | 75 W/m² | - |
| 1777466350 | 12.22° C | 62% | 1014.5 hPa | 0 mm | - | 89 W/m² | - |
| 1777466046 | 12.22° C | 63% | 1014.6 hPa | 0 mm | - | 82 W/m² | - |
| 1777465743 | 12.22° C | 60% | 1014.7 hPa | 0 mm | - | 68 W/m² | - |
| 1777465438 | 12.22° C | 61% | 1014.7 hPa | 0 mm | - | 68 W/m² | - |
| 1777465137 | 12.22° C | 59% | 1014.9 hPa | 0 mm | - | 64 W/m² | - |
| 1777464833 | 12.22° C | 60% | 1014.7 hPa | 0 mm | - | 101 W/m² | - |
| 1777464528 | 12.22° C | 60% | 1014.6 hPa | 0 mm | - | 103 W/m² | - |
| 1777464224 | 11.67° C | 62% | 1014.7 hPa | 0 mm | - | 78 W/m² | - |
| 1777463924 | 11.67° C | 62% | 1014.8 hPa | 0 mm | - | 55 W/m² | - |
| 1777463621 | 11.67° C | 63% | 1014.7 hPa | 0 mm | - | 52 W/m² | - |
| 1777463321 | 11.67° C | 62% | 1014.6 hPa | 0 mm | - | 61 W/m² | - |
| 1777463018 | 11.67° C | 62% | 1014.7 hPa | 0 mm | - | 50 W/m² | - |
| 1777462713 | 11.67° C | 61% | 1015.3 hPa | 0 mm | - | 40 W/m² | - |
| 1777462408 | 11.67° C | 61% | 1015.1 hPa | 0 mm | - | 36 W/m² | - |
* Rain latest hour (hover to see other rain measurements)
** Current wind speed in m/s (hover to see current wind gust speed)